DL1MMS-10 Weather Reports


time (UTC)temp
C
wind
direction
speed
KPH
gust
KPH
rain 1hr
cm
rain 24hr
cm
rain mn
cm
humidity
%
barometer
mb
20260506153427 15 0 0.0 0.0 0.00 0.00 0.00 57 1008.5
20260506152927 16 0 0.0 0.0 0.00 0.00 0.00 55 1008.3
20260506152427 18 0 0.0 0.0 0.00 0.00 0.00 53 1008.4
20260506151926 20 0 0.0 0.0 0.00 0.00 0.00 54 1007.6
20260506151426 21 0 0.0 0.0 0.00 0.00 0.00 53 1007.5
20260506150926 21 0 0.0 0.0 0.00 0.00 0.00 51 1007.4
20260506150425 23 0 0.0 0.0 0.00 0.00 0.00 46 1007.3
20260506145925 26 0 0.0 0.0 0.00 0.00 0.00 46 1007.3
20260506145425 26 0 0.0 0.0 0.00 0.00 0.00 48 1007.4
20260506144925 25 0 0.0 0.0 0.00 0.00 0.00 52 1007.4
20260506144424 22 0 0.0 0.0 0.00 0.00 0.00 58 1007.2
20260506143924 20 0 0.0 0.0 0.00 0.00 0.00 62 1007.3
20260506143424 18 0 0.0 0.0 0.00 0.00 0.00 62 1007.5
20260506142924 18 0 0.0 0.0 0.00 0.00 0.00 62 1007.5
20260506142423 18 0 0.0 0.0 0.00 0.00 0.00 62 1007.3
20260506141923 19 0 0.0 0.0 0.00 0.00 0.00 63 1007.3
20260506141423 18 0 0.0 0.0 0.00 0.00 0.00 62 1007.3
20260506140922 18 0 0.0 0.0 0.00 0.00 0.00 64 1007.2
20260506140422 18 0 0.0 0.0 0.00 0.00 0.00 69 1007.2
20260506135922 17 0 0.0 0.0 0.00 0.00 0.00 73 1007.3
20260506135421 16 0 0.0 0.0 0.00 0.00 0.00 72 1007.4
20260506134922 16 0 0.0 0.0 0.00 0.00 0.00 77 1007.6
20260506134421 14 0 0.0 0.0 0.00 0.00 0.00 82 1007.6
20260506133921 12 0 0.0 0.0 0.00 0.00 0.00 82 1007.5
20260506133420 12 0 0.0 0.0 0.00 0.00 0.00 82 1007.4
20260506132920 11 0 0.0 0.0 0.00 0.00 0.00 80 1007.6
20260506132420 11 0 0.0 0.0 0.00 0.00 0.00 78 1008.0
20260506131920 11 0 0.0 0.0 0.00 0.00 0.00 76 1008.1
20260506131419 11 0 0.0 0.0 0.00 0.00 0.00 75 1008.1
20260506130919 12 0 0.0 0.0 0.00 0.00 0.00 73 1008.2
20260506130419 13 0 0.0 0.0 0.00 0.00 0.00 67 1008.1
20260506125918 15 0 0.0 0.0 0.00 0.00 0.00 62 1008.0
20260506125418 15 0 0.0 0.0 0.00 0.00 0.00 58 1007.5
20260506124918 16 0 0.0 0.0 0.00 0.00 0.00 55 1007.0
20260506124418 16 0 0.0 0.0 0.00 0.00 0.00 54 1006.5
20260506123917 17 0 0.0 0.0 0.00 0.00 0.00 53 1006.5
20260506123417 17 0 0.0 0.0 0.00 0.00 0.00 53 1006.3
20260506122917 18 0 0.0 0.0 0.00 0.00 0.00 51 1006.1
20260506122416 18 0 0.0 0.0 0.00 0.00 0.00 51 1006.1
20260506121916 18 0 0.0 0.0 0.00 0.00 0.00 51 1006.3
20260506121416 18 0 0.0 0.0 0.00 0.00 0.00 50 1006.4
20260506120916 18 0 0.0 0.0 0.00 0.00 0.00 50 1006.6
20260506120415 18 0 0.0 0.0 0.00 0.00 0.00 49 1006.7
20260506115915 18 0 0.0 0.0 0.00 0.00 0.00 49 1006.7
20260506115415 19 0 0.0 0.0 0.00 0.00 0.00 49 1006.5
20260506114914 19 0 0.0 0.0 0.00 0.00 0.00 49 1006.6
20260506114414 19 0 0.0 0.0 0.00 0.00 0.00 49 1006.6
20260506113914 19 0 0.0 0.0 0.00 0.00 0.00 49 1006.6
20260506113414 19 0 0.0 0.0 0.00 0.00 0.00 50 1006.5
20260506112913 18 0 0.0 0.0 0.00 0.00 0.00 50 1006.6
20260506112413 18 0 0.0 0.0 0.00 0.00 0.00 49 1006.7
20260506111913 18 0 0.0 0.0 0.00 0.00 0.00 47 1006.8
20260506111412 19 0 0.0 0.0 0.00 0.00 0.00 46 1006.9
20260506110912 20 0 0.0 0.0 0.00 0.00 0.00 45 1006.8
20260506110412 21 0 0.0 0.0 0.00 0.00 0.00 44 1006.8
20260506105912 22 0 0.0 0.0 0.00 0.00 0.00 43 1006.9
20260506105411 23 0 0.0 0.0 0.00 0.00 0.00 41 1007.0
20260506104911 24 0 0.0 0.0 0.00 0.00 0.00 40 1006.9
20260506104411 24 0 0.0 0.0 0.00 0.00 0.00 41 1007.0
20260506103910 24 0 0.0 0.0 0.00 0.00 0.00 40 1007.0
20260506103410 26 0 0.0 0.0 0.00 0.00 0.00 36 1007.1
20260506102910 28 0 0.0 0.0 0.00 0.00 0.00 37 1007.4
20260506102410 27 0 0.0 0.0 0.00 0.00 0.00 38 1007.3
20260506101909 26 0 0.0 0.0 0.00 0.00 0.00 40 1007.5
20260506101409 24 0 0.0 0.0 0.00 0.00 0.00 45 1007.4
20260506100909 21 0 0.0 0.0 0.00 0.00 0.00 51 1007.6
20260506100409 19 0 0.0 0.0 0.00 0.00 0.00 52 1007.7
20260506095908 19 0 0.0 0.0 0.00 0.00 0.00 53 1007.7
20260506095408 18 0 0.0 0.0 0.00 0.00 0.00 54 1007.5
20260506094908 18 0 0.0 0.0 0.00 0.00 0.00 55 1007.6
20260506094407 18 0 0.0 0.0 0.00 0.00 0.00 54 1007.6
20260506093907 18 0 0.0 0.0 0.00 0.00 0.00 55 1007.7
20260506093407 18 0 0.0 0.0 0.00 0.00 0.00 56 1007.4
20260506092907 18 0 0.0 0.0 0.00 0.00 0.00 56 1007.7
20260506092406 18 0 0.0 0.0 0.00 0.00 0.00 56 1007.9
20260506091906 17 0 0.0 0.0 0.00 0.00 0.00 58 1007.7
20260506091406 17 0 0.0 0.0 0.00 0.00 0.00 58 1007.7
20260506090905 17 0 0.0 0.0 0.00 0.00 0.00 60 1007.7
20260506090405 17 0 0.0 0.0 0.00 0.00 0.00 61 1007.8
20260506085905 16 0 0.0 0.0 0.00 0.00 0.00 62 1007.7
20260506085405 16 0 0.0 0.0 0.00 0.00 0.00 63 1007.8
20260506084904 16 0 0.0 0.0 0.00 0.00 0.00 64 1008.1
20260506084404 15 0 0.0 0.0 0.00 0.00 0.00 66 1008.1
20260506083904 15 0 0.0 0.0 0.00 0.00 0.00 67 1008.0
20260506083403 15 0 0.0 0.0 0.00 0.00 0.00 68 1007.5
20260506082903 15 0 0.0 0.0 0.00 0.00 0.00 68 1007.5
20260506082403 15 0 0.0 0.0 0.00 0.00 0.00 69 1007.9
20260506081903 15 0 0.0 0.0 0.00 0.00 0.00 70 1007.8
20260506081402 15 0 0.0 0.0 0.00 0.00 0.00 72 1008.0
20260506080902 14 0 0.0 0.0 0.00 0.00 0.00 73 1008.0
20260506080402 14 0 0.0 0.0 0.00 0.00 0.00 74 1007.8
20260506073400 12 0 0.0 0.0 0.00 0.00 0.00 77 1008.0
20260506072900 12 0 0.0 0.0 0.00 0.00 0.00 77 1008.1
20260506072400 12 0 0.0 0.0 0.00 0.00 0.00 78 1008.2
20260506071859 12 0 0.0 0.0 0.00 0.00 0.00 78 1008.3
20260506071359 12 0 0.0 0.0 0.00 0.00 0.00 78 1008.1
20260506070859 11 0 0.0 0.0 0.00 0.00 0.00 78 1008.2
20260506070358 11 0 0.0 0.0 0.00 0.00 0.00 78 1008.2
20260506062356 10 0 0.0 0.0 0.00 0.00 0.00 82 1008.5
20260506061856 10 0 0.0 0.0 0.00 0.00 0.00 82 1008.3
20260506061356 10 0 0.0 0.0 0.00 0.00 0.00 83 1008.2
20260506060855 9 0 0.0 0.0 0.00 0.00 0.00 84 1008.2
20260506060355 9 0 0.0 0.0 0.00 0.00 0.00 85 1008.3
20260506051352 7 0 0.0 0.0 0.00 0.00 0.00 87 1008.5
20260506050852 7 0 0.0 0.0 0.00 0.00 0.00 87 1008.6
20260506050352 6 0 0.0 0.0 0.00 0.00 0.00 87 1008.7
20260506044851 5 0 0.0 0.0 0.00 0.00 0.00 87 1008.8
20260506044350 5 0 0.0 0.0 0.00 0.00 0.00 86 1008.8
20260506043850 5 0 0.0 0.0 0.00 0.00 0.00 86 1008.7
20260506043350 5 0 0.0 0.0 0.00 0.00 0.00 86 1008.7
20260506042850 5 0 0.0 0.0 0.00 0.00 0.00 86 1008.7
20260506042349 5 0 0.0 0.0 0.00 0.00 0.00 85 1008.8
20260506041849 6 0 0.0 0.0 0.00 0.00 0.00 86 1008.8
20260506041349 6 0 0.0 0.0 0.00 0.00 0.00 85 1008.9
20260506040848 6 0 0.0 0.0 0.00 0.00 0.00 85 1009.0
20260506040348 6 0 0.0 0.0 0.00 0.00 0.00 85 1009.0
20260506035848 6 0 0.0 0.0 0.00 0.00 0.00 85 1008.9
20260506035348 6 0 0.0 0.0 0.00 0.00 0.00 85 1008.9
20260506034847 6 0 0.0 0.0 0.00 0.00 0.00 85 1008.9
20260506034347 6 0 0.0 0.0 0.00 0.00 0.00 85 1008.9
20260506033847 6 0 0.0 0.0 0.00 0.00 0.00 85 1009.0
20260506033346 6 0 0.0 0.0 0.00 0.00 0.00 85 1008.9
20260506032846 6 0 0.0 0.0 0.00 0.00 0.00 85 1009.1
20260506032346 6 0 0.0 0.0 0.00 0.00 0.00 85 1009.2
20260506031846 6 0 0.0 0.0 0.00 0.00 0.00 85 1009.4
20260506031345 6 0 0.0 0.0 0.00 0.00 0.00 85 1009.4
20260506030845 6 0 0.0 0.0 0.00 0.00 0.00 85 1009.6
20260506030345 6 0 0.0 0.0 0.00 0.00 0.00 85 1009.5
20260506025844 6 0 0.0 0.0 0.00 0.00 0.00 85 1009.6
20260506025344 6 0 0.0 0.0 0.00 0.00 0.00 85 1009.7
20260506024844 6 0 0.0 0.0 0.00 0.00 0.00 85 1009.7
20260506024344 6 0 0.0 0.0 0.00 0.00 0.00 85 1009.5
20260506023843 6 0 0.0 0.0 0.00 0.00 0.00 85 1009.6
20260506023343 6 0 0.0 0.0 0.00 0.00 0.00 85 1009.7
20260506022843 6 0 0.0 0.0 0.00 0.00 0.00 85 1009.7
20260506022343 6 0 0.0 0.0 0.00 0.00 0.00 85 1009.8
20260506021842 6 0 0.0 0.0 0.00 0.00 0.00 85 1009.8
20260506021342 6 0 0.0 0.0 0.00 0.00 0.00 85 1009.9
20260506020842 6 0 0.0 0.0 0.00 0.00 0.00 85 1009.9
20260506020341 6 0 0.0 0.0 0.00 0.00 0.00 85 1009.8
20260506015841 6 0 0.0 0.0 0.00 0.00 0.00 85 1009.7
20260506015341 6 0 0.0 0.0 0.00 0.00 0.00 85 1009.7
20260506014841 6 0 0.0 0.0 0.00 0.00 0.00 85 1009.6
20260506014340 6 0 0.0 0.0 0.00 0.00 0.00 85 1009.6
20260506013840 7 0 0.0 0.0 0.00 0.00 0.00 85 1009.7
20260506013340 7 0 0.0 0.0 0.00 0.00 0.00 85 1009.8
20260506012839 7 0 0.0 0.0 0.00 0.00 0.00 85 1009.8
20260506012339 7 0 0.0 0.0 0.00 0.00 0.00 85 1009.8
20260506011839 7 0 0.0 0.0 0.00 0.00 0.00 85 1009.7
20260506011339 7 0 0.0 0.0 0.00 0.00 0.00 85 1009.9
20260506010838 6 0 0.0 0.0 0.00 0.00 0.00 85 1010.0
20260506010338 6 0 0.0 0.0 0.00 0.00 0.00 85 1010.3
20260506005838 6 0 0.0 0.0 0.00 0.00 0.00 85 1010.3
20260506005337 6 0 0.0 0.0 0.00 0.00 0.00 85 1010.4
20260506004837 6 0 0.0 0.0 0.00 0.00 0.00 85 1010.4
20260506004337 6 0 0.0 0.0 0.00 0.00 0.00 85 1010.4
20260506003837 6 0 0.0 0.0 0.00 0.00 0.00 84 1010.5
20260506003336 6 0 0.0 0.0 0.00 0.00 0.00 84 1010.3
20260506002836 6 0 0.0 0.0 0.00 0.00 0.00 83 1010.4
20260506002336 6 0 0.0 0.0 0.00 0.00 0.00 83 1010.4
20260506001835 6 0 0.0 0.0 0.00 0.00 0.00 83 1010.4
20260506001335 6 0 0.0 0.0 0.00 0.00 0.00 82 1010.4
20260506000835 7 0 0.0 0.0 0.00 0.00 0.00 82 1010.4
20260506000335 7 0 0.0 0.0 0.00 0.00 0.00 82 1010.5
20260505235834 7 0 0.0 0.0 0.00 0.00 0.00 81 1010.6
20260505235334 7 0 0.0 0.0 0.00 0.00 0.00 81 1010.6
20260505234834 7 0 0.0 0.0 0.00 0.00 0.00 81 1010.6
20260505234333 7 0 0.0 0.0 0.00 0.00 0.00 81 1010.6
20260505233833 7 0 0.0 0.0 0.00 0.00 0.00 81 1010.6
20260505233333 7 0 0.0 0.0 0.00 0.00 0.00 80 1010.6
20260505232833 7 0 0.0 0.0 0.00 0.00 0.00 80 1010.5
20260505232332 7 0 0.0 0.0 0.00 0.00 0.00 80 1010.5
20260505231832 8 0 0.0 0.0 0.00 0.00 0.00 79 1010.5
20260505231332 8 0 0.0 0.0 0.00 0.00 0.00 79 1010.6
20260505230831 8 0 0.0 0.0 0.00 0.00 0.00 79 1010.6
20260505230331 8 0 0.0 0.0 0.00 0.00 0.00 79 1010.6
20260505225831 8 0 0.0 0.0 0.00 0.00 0.00 79 1010.7
20260505225331 8 0 0.0 0.0 0.00 0.00 0.00 78 1010.7
20260505224830 8 0 0.0 0.0 0.00 0.00 0.00 78 1010.8
20260505224330 9 0 0.0 0.0 0.00 0.00 0.00 78 1010.8
20260505223830 9 0 0.0 0.0 0.00 0.00 0.00 77 1010.9
20260505223329 9 0 0.0 0.0 0.00 0.00 0.00 77 1010.8
20260505222829 9 0 0.0 0.0 0.00 0.00 0.00 77 1010.8
20260505222329 9 0 0.0 0.0 0.00 0.00 0.00 77 1010.9
20260505221829 9 0 0.0 0.0 0.00 0.00 0.00 77 1011.0
20260505221328 9 0 0.0 0.0 0.00 0.00 0.00 78 1010.9
20260505220828 9 0 0.0 0.0 0.00 0.00 0.00 78 1010.8
20260505220328 9 0 0.0 0.0 0.00 0.00 0.00 79 1010.8
20260505215827 9 0 0.0 0.0 0.00 0.00 0.00 78 1010.8
20260505215327 9 0 0.0 0.0 0.00 0.00 0.00 78 1010.8
20260505214827 9 0 0.0 0.0 0.00 0.00 0.00 78 1010.8
20260505214327 9 0 0.0 0.0 0.00 0.00 0.00 78 1010.8
20260505213826 9 0 0.0 0.0 0.00 0.00 0.00 78 1010.7
20260505213326 9 0 0.0 0.0 0.00 0.00 0.00 78 1010.8
20260505212826 9 0 0.0 0.0 0.00 0.00 0.00 78 1010.9
20260505212326 9 0 0.0 0.0 0.00 0.00 0.00 77 1010.9
20260505211825 10 0 0.0 0.0 0.00 0.00 0.00 76 1010.9
20260505211325 10 0 0.0 0.0 0.00 0.00 0.00 76 1010.8
20260505210825 10 0 0.0 0.0 0.00 0.00 0.00 75 1010.9
20260505210324 10 0 0.0 0.0 0.00 0.00 0.00 75 1010.9
20260505205824 10 0 0.0 0.0 0.00 0.00 0.00 75 1010.9
20260505205324 10 0 0.0 0.0 0.00 0.00 0.00 75 1010.8
20260505204824 10 0 0.0 0.0 0.00 0.00 0.00 74 1010.8
20260505204323 11 0 0.0 0.0 0.00 0.00 0.00 73 1010.7
20260505203823 11 0 0.0 0.0 0.00 0.00 0.00 73 1010.8
20260505203323 11 0 0.0 0.0 0.00 0.00 0.00 73 1010.8
20260505202822 11 0 0.0 0.0 0.00 0.00 0.00 72 1010.9
20260505202322 11 0 0.0 0.0 0.00 0.00 0.00 72 1011.0
20260505201822 11 0 0.0 0.0 0.00 0.00 0.00 71 1011.0
20260505201322 12 0 0.0 0.0 0.00 0.00 0.00 71 1010.9
20260505200821 12 0 0.0 0.0 0.00 0.00 0.00 71 1010.9
20260505200321 12 0 0.0 0.0 0.00 0.00 0.00 71 1010.9
20260505195821 12 0 0.0 0.0 0.00 0.00 0.00 71 1011.0
20260505195320 12 0 0.0 0.0 0.00 0.00 0.00 71 1011.0
20260505194820 12 0 0.0 0.0 0.00 0.00 0.00 72 1010.7
20260505194320 12 0 0.0 0.0 0.00 0.00 0.00 73 1010.7
20260505193820 13 0 0.0 0.0 0.00 0.00 0.00 75 1010.6
20260505193319 13 0 0.0 0.0 0.00 0.00 0.00 77 1010.7
20260505192819 13 0 0.0 0.0 0.00 0.00 0.00 77 1010.5
20260505192319 13 0 0.0 0.0 0.00 0.00 0.00 76 1010.3
20260505191818 13 0 0.0 0.0 0.00 0.00 0.00 76 1010.2
20260505191318 13 0 0.0 0.0 0.00 0.00 0.00 75 1010.2
20260505190818 13 0 0.0 0.0 0.00 0.00 0.00 74 1010.0
20260505190318 13 0 0.0 0.0 0.00 0.00 0.00 73 1010.0
20260505185817 13 0 0.0 0.0 0.00 0.00 0.00 72 1009.7
20260505185317 13 0 0.0 0.0 0.00 0.00 0.00 71 1009.8
20260505184817 13 0 0.0 0.0 0.00 0.00 0.00 70 1009.6
20260505184316 13 0 0.0 0.0 0.00 0.00 0.00 69 1009.5
20260505183816 14 0 0.0 0.0 0.00 0.00 0.00 68 1009.6
20260505183316 15 0 0.0 0.0 0.00 0.00 0.00 66 1009.7
20260505182816 15 0 0.0 0.0 0.00 0.00 0.00 65 1009.4
20260505182315 15 0 0.0 0.0 0.00 0.00 0.00 64 1009.2
20260505181815 15 0 0.0 0.0 0.00 0.00 0.00 63 1009.0
20260505181315 15 0 0.0 0.0 0.00 0.00 0.00 61 1008.9
20260505180814 16 0 0.0 0.0 0.00 0.00 0.00 61 1008.9
20260505180314 -30 0 0.0 0.0 0.00 0.00 0.00 60 1008.8
20260505175814 16 0 0.0 0.0 0.00 0.00 0.00 60 1008.8
20260505175314 16 0 0.0 0.0 0.00 0.00 0.00 59 1008.8
20260505174813 16 0 0.0 0.0 0.00 0.00 0.00 59 1008.8
20260505174313 16 0 0.0 0.0 0.00 0.00 0.00 59 1008.8
20260505173813 16 0 0.0 0.0 0.00 0.00 0.00 59 1008.6
20260505173312 16 0 0.0 0.0 0.00 0.00 0.00 59 1008.5
20260505172813 17 0 0.0 0.0 0.00 0.00 0.00 58 1008.4
20260505172312 17 0 0.0 0.0 0.00 0.00 0.00 57 1008.5
20260505171812 17 0 0.0 0.0 0.00 0.00 0.00 55 1008.5
20260505171311 18 0 0.0 0.0 0.00 0.00 0.00 54 1008.4
20260505170811 18 0 0.0 0.0 0.00 0.00 0.00 52 1008.5
20260505170311 19 0 0.0 0.0 0.00 0.00 0.00 50 1008.4
20260505165811 20 0 0.0 0.0 0.00 0.00 0.00 48 1008.3
20260505165310 21 0 0.0 0.0 0.00 0.00 0.00 47 1008.4
20260505164810 21 0 0.0 0.0 0.00 0.00 0.00 46 1008.3
20260505164310 21 0 0.0 0.0 0.00 0.00 0.00 47 1008.6
20260505163809 20 0 0.0 0.0 0.00 0.00 0.00 52 1008.4
20260505163309 18 0 0.0 0.0 0.00 0.00 0.00 54 1008.5
20260505162809 17 0 0.0 0.0 0.00 0.00 0.00 55 1008.7
20260505162309 17 0 0.0 0.0 0.00 0.00 0.00 53 1008.7
20260505161808 17 0 0.0 0.0 0.00 0.00 0.00 50 1008.8
20260505161308 18 0 0.0 0.0 0.00 0.00 0.00 49 1008.9
20260505160808 18 0 0.0 0.0 0.00 0.00 0.00 48 1008.8
20260505160307 18 0 0.0 0.0 0.00 0.00 0.00 46 1008.7